Powrót do katalogu

CZ-4 DEB

AktywnySSO
NORAD 27536·DEBRIS·🇨🇳 China

Wystrzelony Oct 14, 1999 z Taiyuan Satellite Launch Center

Loading…

Następne Przeloty (najbliższe 24 godziny)

TLE

ŚwieżeSource: Space-Track

Epoka: Sep 14, 2026, 14:06 UTC

1 27536U 99057MP  26257.58764338  .00002344  00000-0  40552-3 0  9991
2 27536  98.4550 298.2011 0026636 159.7763 353.9219 14.69150596297859

Śledź CZ-4 DEB w czasie rzeczywistym z AllMySat

Download on the App Store